Location: Haliburton Scout Reserve
(45.0900°N, 78.3200°W)
Time: 15:28:23
(UTC-04:00)

Courier 1B - Pass Details

Date: 01 December 2023
Orbit: 962 x 1208 km, 28.3° (Epoch: 02 October)

Event Time Altitude Azimuth Distance (km) Brightness Sun altitude
Rises 14:48:59 0° 247° (WSW) 3,635 11.7 13.1°
Reaches altitude 10° 14:53:21 10° 220° (SW) 2,703 13.7 12.6°
Maximum altitude 14:55:59 13° 195° (SSW) 2,525 11.1 12.3°
Drops below altitude 10° 14:58:39 10° 171° (S) 2,740 10.5 12.0°
Sets 15:03:09 0° 144° (SE) 3,736 10.7 11.4°
